Phuket, Thailand

4:57 AM +07 on February 21, 2018 (GMT +0700)
Phuket International

Weather History for VTSP - June, 2013

Change the Weather History Date:

Thursday, June 20, 2013

  Actual Average Record
Temperature  
Mean Temperature 81 °F -  
Max Temperature 88 °F 88 °F 96 °F (2002)
Min Temperature 74 °F 78 °F 73 °F (1999)
Cooling Degree Days 16    
Growing Degree Days 31 (Base 50)    
Moisture  
Dew Point 75 °F    
Average Humidity 74    
Maximum Humidity 84    
Minimum Humidity 62    
Precipitation  
Precipitation 0.00 in 0.37 in - ()
Sea Level Pressure  
Sea Level Pressure 29.78 in    
Wind  
Wind Speed 12 mph ()    
Max Wind Speed 21 mph    
Max Gust Speed 33 mph    
Visibility 4.5 miles    
Events      
Averages and records for this station are not official NWS values.
T = Trace of Precipitation, MM = Missing Value Source: Averaged Metar Reports

Daily Weather History Graph

Daily Weather History Graph

Search for Another Location

Airport or City:

Trip Planner

Search our weather history database for the weather conditions in past years. The results will help you decide how hot, cold, wet, or windy it might be!

Date:

Astronomy

Jun. 20, 2013 Rise Set
Actual Time 6:10 AM +07 6:46 PM +07
Civil Twilight 5:47 AM +07 7:09 PM +07
Nautical Twilight 5:20 AM +07 7:35 PM +07
Astronomical Twilight 4:53 AM +07 8:03 PM +07
Moon 3:34 PM +07 2:45 AM +07
Length of Visible Light 13h 21m
Length of Day
12h 35m
Waxing Gibbous, 85% of the Moon is Illuminated
Jun 20
Waxing Gibbous
Jun 23
Full
Jun 30
Last Quarter
Jul 8
New
Jul 16
First Quarter

Hourly Weather History & Observations

Time (+07) Temp. Heat Index Dew Point Humidity Pressure Visibility Wind Dir Wind Speed Gust Speed Precip Events Conditions
12:00 AM 82.4 °F 89.5 °F 75.2 °F 79% 29.80 in 5.0 mi WSW 11.5 mph - N/A   Mostly Cloudy
12:30 AM 82.4 °F 89.5 °F 75.2 °F 79% 29.77 in 5.0 mi WSW 10.4 mph - N/A   Mostly Cloudy
1:00 AM 83 °F - 78 °F 79% 29.75 in 6 mi West 8.1 mph - -   Mist
1:00 AM 82.4 °F 89.5 °F 75.2 °F 79% 29.77 in 5.0 mi West 13.8 mph - N/A   Mostly Cloudy
1:30 AM 82.4 °F 89.5 °F 75.2 °F 79% 29.77 in 5.0 mi WSW 8.1 mph - N/A   Mostly Cloudy
2:00 AM 82.4 °F 90.9 °F 77.0 °F 84% 29.77 in 5.0 mi WSW 9.2 mph - N/A   Mostly Cloudy
2:30 AM 82.4 °F 89.5 °F 75.2 °F 79% 29.77 in 5.0 mi WSW 11.5 mph - N/A   Mostly Cloudy
3:00 AM 82.4 °F 89.5 °F 75.2 °F 79% 29.77 in 5.0 mi WSW 13.8 mph - N/A   Mostly Cloudy
3:30 AM 82.4 °F 89.5 °F 75.2 °F 79% 29.74 in 5.0 mi WSW 12.7 mph - N/A   Mostly Cloudy
4:00 AM 82.4 °F 89.5 °F 75.2 °F 79% 29.74 in 5.0 mi West 13.8 mph - N/A   Mostly Cloudy
4:30 AM 82.4 °F 89.5 °F 75.2 °F 79% 29.74 in 5.0 mi West 13.8 mph - N/A   Mostly Cloudy
5:00 AM 82.4 °F 89.5 °F 75.2 °F 79% 29.74 in 5.0 mi WSW 12.7 mph - N/A   Mostly Cloudy
6:00 AM 82.4 °F 89.5 °F 75.2 °F 79% 29.77 in 5.0 mi West 13.8 mph - N/A   Mostly Cloudy
6:30 AM 84.2 °F 92.3 °F 75.2 °F 74% 29.77 in 4.3 mi West 17.3 mph - N/A   Mostly Cloudy
7:00 AM 84 °F - 76 °F 71% 29.75 in 5 mi WNW 9.2 mph - -   Mist
7:00 AM 84.2 °F 90.9 °F 73.4 °F 70% 29.77 in 5.0 mi West 19.6 mph - N/A   Mostly Cloudy
7:30 AM 84.2 °F 92.3 °F 75.2 °F 74% 29.80 in 5.0 mi West 17.3 mph - N/A   Mostly Cloudy
8:00 AM 84.2 °F 90.9 °F 73.4 °F 70% 29.80 in 4.3 mi West 20.7 mph 33.4 mph N/A   Mostly Cloudy
8:30 AM 84.2 °F 92.3 °F 75.2 °F 74% 29.80 in 5.0 mi West 15.0 mph 26.5 mph N/A   Mostly Cloudy
9:00 AM 84.2 °F 92.3 °F 75.2 °F 74% 29.83 in 5.0 mi West 17.3 mph - N/A   Mostly Cloudy
9:30 AM 86.0 °F 95.1 °F 75.2 °F 70% 29.83 in 4.3 mi West 17.3 mph - N/A   Mostly Cloudy
10:00 AM 86.0 °F 96.9 °F 77.0 °F 74% 29.83 in 4.3 mi West 16.1 mph - N/A   Mostly Cloudy
10:30 AM 86.0 °F 93.4 °F 73.4 °F 66% 29.80 in 4.3 mi West 13.8 mph - N/A   Mostly Cloudy
11:00 AM 86.0 °F 95.1 °F 75.2 °F 70% 29.80 in 4.3 mi Variable 11.5 mph 23.0 mph N/A   Mostly Cloudy
11:30 AM 87.8 °F 99.7 °F 77.0 °F 70% 29.80 in 4.3 mi West 13.8 mph - N/A   Mostly Cloudy
12:00 PM 87.8 °F 97.6 °F 75.2 °F 66% 29.80 in 4.3 mi West 18.4 mph - N/A   Mostly Cloudy
12:30 PM 87.8 °F 97.6 °F 75.2 °F 66% 29.80 in 4.3 mi West 17.3 mph - N/A   Mostly Cloudy
1:00 PM 87.8 °F 95.6 °F 73.4 °F 62% 29.77 in 4.3 mi West 13.8 mph - N/A   Mostly Cloudy
1:30 PM 87.8 °F 97.6 °F 75.2 °F 66% 29.77 in 4.3 mi West 16.1 mph - N/A   Mostly Cloudy
2:00 PM 87.8 °F 97.6 °F 75.2 °F 66% 29.77 in 4.3 mi West 12.7 mph 24.2 mph N/A   Mostly Cloudy
2:30 PM 87.8 °F 97.6 °F 75.2 °F 66% 29.74 in 4.3 mi West 17.3 mph - N/A   Mostly Cloudy
3:00 PM 87.8 °F 97.6 °F 75.2 °F 66% 29.74 in 4.3 mi West 13.8 mph - N/A   Mostly Cloudy
3:30 PM 86.0 °F 95.1 °F 75.2 °F 70% 29.74 in 4.3 mi West 16.1 mph - N/A   Mostly Cloudy
4:00 PM 87.8 °F 97.6 °F 75.2 °F 66% 29.74 in 4.3 mi West 18.4 mph - N/A   Mostly Cloudy
4:30 PM 86.0 °F 95.1 °F 75.2 °F 70% 29.74 in 4.3 mi West 15.0 mph - N/A   Mostly Cloudy
5:00 PM 86.0 °F 95.1 °F 75.2 °F 70% 29.74 in 4.3 mi West 16.1 mph - N/A   Mostly Cloudy
5:30 PM 84.2 °F 92.3 °F 75.2 °F 74% 29.74 in 4.3 mi West 13.8 mph - N/A   Mostly Cloudy
6:00 PM 84.2 °F 90.9 °F 73.4 °F 70% 29.74 in 4.3 mi West 15.0 mph - N/A   Mostly Cloudy
6:30 PM 84.2 °F 92.3 °F 75.2 °F 74% 29.74 in 3.1 mi WSW 15.0 mph - N/A   Mostly Cloudy
7:00 PM 84 °F - 78 °F 78% 29.72 in 4 mi West 13.8 mph - -   Mist
7:00 PM 84.2 °F 92.3 °F 75.2 °F 74% 29.77 in 3.1 mi WSW 15.0 mph - N/A   Mostly Cloudy
7:30 PM 84.2 °F 92.3 °F 75.2 °F 74% 29.77 in 3.1 mi West 15.0 mph - N/A   Mostly Cloudy
8:00 PM 84.2 °F 92.3 °F 75.2 °F 74% 29.77 in 4.3 mi WSW 10.4 mph - N/A   Mostly Cloudy
8:30 PM 84.2 °F 92.3 °F 75.2 °F 74% 29.77 in 4.3 mi West 13.8 mph - N/A   Mostly Cloudy
9:00 PM 84.2 °F 92.3 °F 75.2 °F 74% 29.80 in 4.3 mi West 11.5 mph - N/A   Mostly Cloudy
9:30 PM 80.6 °F 85.4 °F 73.4 °F 79% 29.83 in 4.3 mi SW 5.8 mph - N/A   Mostly Cloudy
10:00 PM 80.6 °F 86.2 °F 75.2 °F 84% 29.83 in 5.0 mi WSW 6.9 mph - N/A   Mostly Cloudy
10:30 PM 82.4 °F 89.5 °F 75.2 °F 79% 29.83 in 5.0 mi West 8.1 mph - N/A   Mostly Cloudy
11:00 PM 82.4 °F 89.5 °F 75.2 °F 79% 29.83 in 5.0 mi WSW 11.5 mph - N/A   Mostly Cloudy
11:30 PM 84.2 °F 90.9 °F 73.4 °F 70% 29.83 in 5.0 mi WSW 16.1 mph - N/A   Mostly Cloudy